Hourly Weather Rus'ki Heivtsi

Today, 16 April, Friday

Time Temperature Precipitation Wind Pressure Humidity
00:00 +4°C° 0 mm 1 mps 754 mmHg 91%
01:00 +4°C° 0 mm 1 mps 754 mmHg 91%
02:00 +3°C° 0 mm 0 mps 754 mmHg 93%
03:00 +2°C° 0 mm 0 mps 754 mmHg 94%
04:00 +2°C° 0 mm 0 mps 754 mmHg 96%
05:00 +3°C° 0 mm 0 mps 754 mmHg 95%
06:00 +3°C° 0 mm 0 mps 754 mmHg 95%
07:00 +3°C° 0 mm 0 mps 754 mmHg 94%
08:00 +5°C° 0 mm 1 mps 754 mmHg 90%
09:00 +6°C° 0 mm 1 mps 755 mmHg 86%
10:00 +5°C° 0 mm 2 mps 755 mmHg 82%
11:00 +6°C° 0.1 mm 2 mps 755 mmHg 79%
12:00 +7°C° 0.1 mm 2 mps 754 mmHg 76%
13:00 +7°C° 0.1 mm 3 mps 754 mmHg 73%
14:00 +7°C° 0.1 mm 3 mps 754 mmHg 73%
15:00 +8°C° 0.1 mm 3 mps 754 mmHg 73%
16:00 +8°C° 0.1 mm 3 mps 754 mmHg 73%
17:00 +7°C° 0.1 mm 2 mps 754 mmHg 76%
18:00 +6°C° 0.1 mm 2 mps 754 mmHg 79%
19:00 +5°C° 0.1 mm 2 mps 755 mmHg 83%
20:00 +5°C° 0.1 mm 2 mps 755 mmHg 84%
21:00 +6°C° 0.1 mm 1 mps 755 mmHg 86%
22:00 +6°C° 0.1 mm 1 mps 755 mmHg 88%
23:00 +5°C° 0 mm 1 mps 755 mmHg 88%

Tomorrow, 17 April, Saturday

Time Temperature Precipitation Wind Pressure Humidity
00:00 +5°C° 0 mm 1 mps 755 mmHg 88%
01:00 +5°C° 0 mm 1 mps 755 mmHg 89%
02:00 +5°C° 0 mm 1 mps 755 mmHg 89%
03:00 +4°C° 0 mm 1 mps 755 mmHg 89%
04:00 +4°C° 0 mm 1 mps 755 mmHg 89%
05:00 +4°C° 0 mm 2 mps 755 mmHg 87%
06:00 +4°C° 0 mm 2 mps 755 mmHg 84%
07:00 +5°C° 0 mm 2 mps 756 mmHg 82%
08:00 +7°C° 0 mm 1 mps 755 mmHg 77%
09:00 +8°C° 0 mm 1 mps 755 mmHg 72%
10:00 +10°C° 0 mm 1 mps 755 mmHg 67%
11:00 +10°C° 0 mm 1 mps 755 mmHg 64%
12:00 +11°C° 0 mm 1 mps 754 mmHg 62%
13:00 +11°C° 0 mm 1 mps 754 mmHg 60%
14:00 +10°C° 0 mm 2 mps 754 mmHg 61%
15:00 +10°C° 0 mm 2 mps 754 mmHg 63%
16:00 +10°C° 0 mm 2 mps 754 mmHg 64%
17:00 +9°C° 0 mm 3 mps 754 mmHg 70%
18:00 +8°C° 0 mm 3 mps 754 mmHg 76%
19:00 +5°C° 0 mm 3 mps 754 mmHg 82%
20:00 +5°C° 0 mm 3 mps 754 mmHg 85%
21:00 +4°C° 0 mm 3 mps 753 mmHg 87%
22:00 +3°C° 0 mm 3 mps 753 mmHg 89%
23:00 +3°C° 0 mm 3 mps 753 mmHg 90%

Day after tomorrow, 18 April, Sunday

Time Temperature Precipitation Wind Pressure Humidity
00:00 +3°C° 0 mm 3 mps 753 mmHg 91%
01:00 +2°C° 0 mm 3 mps 753 mmHg 91%
02:00 +2°C° 0 mm 3 mps 753 mmHg 91%
03:00 +2°C° 0 mm 3 mps 753 mmHg 91%
04:00 +2°C° 0 mm 3 mps 753 mmHg 91%
05:00 +3°C° 0 mm 3 mps 753 mmHg 86%
06:00 +4°C° 0 mm 3 mps 752 mmHg 82%
07:00 +5°C° 0 mm 3 mps 752 mmHg 78%
08:00 +8°C° 0 mm 3 mps 752 mmHg 73%
09:00 +10°C° 0 mm 3 mps 752 mmHg 68%
10:00 +11°C° 0 mm 3 mps 752 mmHg 63%
11:00 +12°C° 0 mm 3 mps 752 mmHg 61%
12:00 +13°C° 0 mm 3 mps 752 mmHg 59%
13:00 +14°C° 0 mm 3 mps 751 mmHg 57%
14:00 +13°C° 0 mm 3 mps 751 mmHg 59%
15:00 +13°C° 0 mm 4 mps 751 mmHg 61%
16:00 +12°C° 0 mm 4 mps 751 mmHg 64%
17:00 +11°C° 0 mm 4 mps 751 mmHg 69%
18:00 +8°C° 0 mm 4 mps 751 mmHg 74%
19:00 +7°C° 0 mm 3 mps 751 mmHg 78%
20:00 +7°C° 0 mm 3 mps 751 mmHg 81%
21:00 +7°C° 0 mm 3 mps 752 mmHg 83%
22:00 +5°C° 0 mm 3 mps 752 mmHg 85%
23:00 +7°C° 0 mm 2 mps 751 mmHg 85%

19 April, Monday

Time Temperature Precipitation Wind Pressure Humidity
00:00 +7°C° 0 mm 2 mps 751 mmHg 85%
01:00 +7°C° 0 mm 2 mps 751 mmHg 85%
02:00 +7°C° 0 mm 2 mps 751 mmHg 85%
03:00 +7°C° 0 mm 2 mps 751 mmHg 85%
04:00 +8°C° 0 mm 1 mps 751 mmHg 85%
05:00 +7°C° 0 mm 2 mps 751 mmHg 83%
06:00 +8°C° 0 mm 2 mps 751 mmHg 80%
07:00 +8°C° 0 mm 2 mps 750 mmHg 78%
08:00 +9°C° 0 mm 3 mps 750 mmHg 73%
09:00 +10°C° 0 mm 3 mps 750 mmHg 68%
10:00 +12°C° 0 mm 4 mps 750 mmHg 63%
11:00 +12°C° 0.1 mm 4 mps 749 mmHg 63%
12:00 +12°C° 0.1 mm 4 mps 749 mmHg 62%
13:00 +12°C° 0.1 mm 4 mps 749 mmHg 62%
14:00 +12°C° 0.1 mm 4 mps 748 mmHg 64%
15:00 +12°C° 0.1 mm 4 mps 748 mmHg 66%
16:00 +10°C° 0.1 mm 5 mps 748 mmHg 69%
17:00 +10°C° 0 mm 4 mps 748 mmHg 72%
18:00 +8°C° 0 mm 4 mps 748 mmHg 75%
19:00 +7°C° 0 mm 4 mps 748 mmHg 78%
20:00 +6°C° 0 mm 4 mps 748 mmHg 80%
21:00 +5°C° 0 mm 3 mps 748 mmHg 82%
22:00 +5°C° 0 mm 3 mps 748 mmHg 85%
23:00 +4°C° 0 mm 3 mps 748 mmHg 86%

20 April, Tuesday

Time Temperature Precipitation Wind Pressure Humidity
00:00 +4°C° 0 mm 3 mps 748 mmHg 86%
01:00 +3°C° 0 mm 3 mps 748 mmHg 87%
02:00 +3°C° 0 mm 3 mps 748 mmHg 88%
03:00 +4°C° 0 mm 3 mps 748 mmHg 88%
04:00 +4°C° 0 mm 4 mps 748 mmHg 89%
05:00 +5°C° 0 mm 4 mps 748 mmHg 85%
06:00 +6°C° 0 mm 4 mps 748 mmHg 81%
07:00 +7°C° 0 mm 4 mps 748 mmHg 77%
08:00 +7°C° 0 mm 4 mps 748 mmHg 76%
09:00 +8°C° 0 mm 5 mps 748 mmHg 75%
10:00 +8°C° 0 mm 5 mps 748 mmHg 74%
11:00 +9°C° 0 mm 5 mps 748 mmHg 69%
12:00 +11°C° 0 mm 4 mps 748 mmHg 63%
13:00 +12°C° 0 mm 4 mps 748 mmHg 58%
14:00 +12°C° 0.1 mm 4 mps 747 mmHg 59%
15:00 +12°C° 0.1 mm 3 mps 747 mmHg 60%
16:00 +12°C° 0.1 mm 3 mps 747 mmHg 60%
17:00 +12°C° 0.1 mm 2 mps 747 mmHg 67%
18:00 +9°C° 0.1 mm 2 mps 747 mmHg 74%
19:00 +8°C° 0.1 mm 1 mps 748 mmHg 81%
20:00 +8°C° 0 mm 1 mps 748 mmHg 82%
21:00 +6°C° 0 mm 0 mps 748 mmHg 83%
22:00 +6°C° 0 mm 0 mps 748 mmHg 85%
23:00 +5°C° 0 mm 0 mps 748 mmHg 86%

21 April, Wednesday

Time Temperature Precipitation Wind Pressure Humidity
00:00 +6°C° 0 mm 1 mps 748 mmHg 87%
01:00 +6°C° 0 mm 1 mps 748 mmHg 88%
02:00 +6°C° 0 mm 1 mps 748 mmHg 89%
03:00 +6°C° 0 mm 1 mps 748 mmHg 91%
04:00 +6°C° 0 mm 1 mps 749 mmHg 92%
05:00 +6°C° 0 mm 1 mps 749 mmHg 90%
06:00 +6°C° 0 mm 2 mps 749 mmHg 89%
07:00 +7°C° 0 mm 2 mps 749 mmHg 88%
08:00 +8°C° 0 mm 2 mps 750 mmHg 84%
09:00 +9°C° 0 mm 3 mps 750 mmHg 80%
10:00 +11°C° 0 mm 3 mps 750 mmHg 75%
11:00 +11°C° 0.4 mm 3 mps 750 mmHg 74%
12:00 +12°C° 0.4 mm 3 mps 750 mmHg 72%
13:00 +13°C° 0.4 mm 3 mps 750 mmHg 70%
14:00 +13°C° 0.9 mm 3 mps 750 mmHg 71%
15:00 +14°C° 0.9 mm 3 mps 749 mmHg 73%
16:00 +14°C° 0.9 mm 3 mps 749 mmHg 74%
17:00 +12°C° 0.9 mm 3 mps 750 mmHg 79%
18:00 +12°C° 0.9 mm 2 mps 750 mmHg 83%
19:00 +9°C° 0.9 mm 2 mps 750 mmHg 88%
20:00 +9°C° 0.1 mm 2 mps 751 mmHg 89%
21:00 +8°C° 0.1 mm 2 mps 751 mmHg 91%
22:00 +7°C° 0.1 mm 2 mps 751 mmHg 92%
23:00 +7°C° 0 mm 2 mps 752 mmHg 93%
Show more